Regional Weather Roundup
Issued by NWS

Home | Current Version | Previous Version | Text Only | Print | Product List | Glossary On
Versions: 1 2 3 4 5 6 7 8 9 10 11 12 13 14 15 16 17 18 19 20 21 22 23 24 25 26 27 28
000
ASUS46 KSEW 061510
RWRWA

WASHINGTON REGIONAL WEATHER ROUNDUP
NATIONAL WEATHER SERVICE SEATTLE WA
800 AM PDT FRI MAY 06 2016

NOTE:"FAIR" INDICATES FEW OR NO CLOUDS BELOW 12,000 FEET WITH NO
SIGNIFICANT WEATHER AND/OR OBSTRUCTIONS TO VISIBILITY.

WAZ505-507>509-061600-
SEATTLE, TACOMA, EVERETT, AND VICINITY

CITY           SKY/WX    TMP DP  RH WIND       PRES   REMARKS
EVERETT        SUNNY     54  47  77 VRB6      30.10F
BOEING FIELD   SUNNY     59  48  67 NE5       30.10S
RENTON         SUNNY     56  49  77 NW9       30.09S
SEATAC AIRPORT MOSUNNY   57  46  66 N13       30.10S
JBLM-MCCHORD   SUNNY     57  49  73 NE8       30.08F
PUYALLUP       FAIR      57  48  72 VRB5      30.09S
BREMERTON      SUNNY     57  46  67 NE7       30.10S
JBLM-FT LEWIS  SUNNY     57  48  73 N8        30.08F
TACOMA NARROWS SUNNY     56  45  66 NE8       30.08F
$$

WAZ001-503-506-510-514-515-061600-
NORTH INTERIOR

CITY           SKY/WX    TMP DP  RH WIND       PRES   REMARKS
BELLINGHAM     SUNNY     57  46  66 NW6       30.09F
FRIDAY HARBOR  SUNNY     60  43  53 N9G18     30.11S
EASTSOUND      SUNNY     55  48  76 N10       30.10S
PORT ANGELES   SUNNY     60  45  57 SW6       30.12S
EDIZ HOOK      FAIR      57  43  59 CALM      30.12S
PORT TOWNSEND  FAIR      63  41  45 NW10G16   30.11S
NAS WHIDBEY    NOT AVBL
ARLINGTON      SUNNY     52  43  71 CALM      30.12S
BURLINGTON     SUNNY     54  48  82 NE3       30.10S
$$

WAZ020-022-039-040-504-511-512-061600-
SOUTHWEST INTERIOR

CITY           SKY/WX    TMP DP  RH WIND       PRES   REMARKS
SHELTON        SUNNY     51  48  89 CALM      30.07R
OLYMPIA        SUNNY     55  48  77 E5        30.09S
CHEHALIS       FAIR      54  50  87 CALM      30.08F
KELSO          SUNNY     55  46  71 NW3       30.09R
VANCOUVER      SUNNY     58  48  69 VRB6      30.02S
SCAPPOOSE, OR  SUNNY     61  46  57 NW13      30.02S
PORTLAND, OR   MOSUNNY   58  48  69 NW6       30.03S
$$

WAZ021-516-517-061600-
WASHINGTON COAST

CITY           SKY/WX    TMP DP  RH WIND       PRES   REMARKS
FORKS          SUNNY     54  45  71 CALM      30.07S
HOQUIAM        SUNNY     52  49  89 NE3       30.08R FOG
ASTORIA, OR    SUNNY     51  48  89 CALM      30.05S
$$

WAZ019-023-024-040-518-519-061600-
CASCADE MOUNTAINS AND COLUMBIA GORGE

CITY           SKY/WX    TMP DP  RH WIND       PRES   REMARKS
STAMPEDE PASS  SUNNY     53  46  77 CALM      30.10R
TROUTDALE, OR  SUNNY     56  50  80 CALM      30.03R
THE DALLES, OR SUNNY     60  51  72 CALM      30.01R
$$

WAZ026-027-041>044-520-521-061600-
EAST SLOPES

CITY           SKY/WX    TMP DP  RH WIND       PRES   REMARKS
OMAK           SUNNY     57  37  47 N17G26    30.12R
WENATCHEE      SUNNY     55  46  71 W13       30.08R
ELLENSBURG     SUNNY     56  47  71 CALM      30.05S
YAKIMA         SUNNY     63  46  54 N9        30.03F
$$

WAZ028-034-035-061600-
COLUMBIA BASIN

CITY           SKY/WX    TMP DP  RH WIND       PRES   REMARKS
EPHRATA        SUNNY     65  39  38 N20       30.02R
MOSES LAKE     SUNNY     64  42  44 N14       30.03R
PASCO          SUNNY     62  49  62 N9        29.99S
HERMISTON, OR  MOSUNNY   63  49  60 S3        29.98S
$$

WAZ036>038-061600-
NORTHEAST WASHINGTON

CITY           SKY/WX    TMP DP  RH WIND       PRES   REMARKS
SPOKANE GEIGER PTSUNNY   60  49  66 N10       30.04R
SPOKANE FELTS  PTSUNNY   63  51  65 VRB3      30.04S
FAIRCHILD AFB  MOSUNNY   59  50  72 NE12      30.03S
COEURDALENE,ID MOSUNNY   57  48  72 NE18      30.04R
DEER PARK      CLOUDY    58  48  69 N6        30.07R
$$

WAZ029>033-061600-
SOUTHEAST WASHINGTON

CITY           SKY/WX    TMP DP  RH WIND       PRES   REMARKS
PULLMAN        PTSUNNY   57  54  89 N5        30.01S
LEWISTON, ID   CLOUDY    59  55  87 S3        29.98S
WALLA WALLA    MOSUNNY   55  48  77 S7        29.98S
PENDLETON, OR  MOSUNNY   56  47  71 W3        29.99S
$$




USA.gov is the U.S. government's official web portal to all federal, state and local government web resources and services.